Погода в Новониколаевске

Россия / Иркутская область     53°09′18″N   105°05′57″E
темп.,
°C
ветер,
м/с
пор.,
м/с
влажн.,
%
обл.,
%
осадки,
мм/ч
давл.,
гПа
погр.,
м
18 октября, пн
пн1823:00−4ссз11815 0.0 103210
02:00−4ссв11825 0.0 103210
05:00−5в11855 0.0 103210
08:00−5в11855 0.0 103217
11:000юв22530 0.0 1031419
14:00+3юв22380 0.0 1028602
17:00+2юв11450 0.0 102810
20:00−3всв11570 0.0 102910
19 октября, вт
вт1923:00−3в11570 0.0 103010
02:00−3в00580 0.0 103010
05:00−3сз00625 0.0 103010
08:00−4зсз11675 0.0 103010
11:00+3з13505 0.0 1029388
14:00+6сз34430 0.0 1027928
17:00+3зсз24570 0.0 102877
20:00−1сз11775 0.0 103110
20 октября, ср
ср2023:00−2сз11828 0.0 103110
02:00−2сз118217 0.0 103110
05:00−2ссз11825 0.0 103110
08:00−2ссз118326 0.0 103210
11:00+4з115559 0.0 1030336
14:00+6з12477 0.0 1028918
17:00+4сз11595 0.0 102810
20:000ссв11755 0.0 103010
21 октября, чт
чт2123:00−1всв11790 0.0 103010
02:00−2в11820 0.0 102910
05:00−2в11835 0.0 102911
08:00−2в22845 0.0 102818
11:00+5вюв24535 0.0 1025312
14:00+7юв344313 0.0 1023563
17:00+5юв225825 0.0 102220
20:00+1вюв117762 0.0 102310
22 октября, пт
пт2223:000в117935 0.0 102410
02:00−1вюв11806 0.0 102310
05:00−1вюв11845 0.0 102310
08:00−1вюв118722 0.0 102410
11:00+5ююз11605 0.0 1022260
14:00+8ююз11525 0.0 1021519
17:00+5ююз11645 0.0 102110
20:00+1з008013 0.0 102310